C/2017 T2 ( PanSTARRS )

Japanese version
Home page
Updated on July 7, 2020

---------------------------------------------------------------------

* Profile

Discovery Date October 2, 2017
Magnitude 19.9 mag
Discoverer Pan-STARRS 1 telescope (Haleakala)

* Pictures

* Orbital Elements

Epoch 2020 Apr. 21.0 TT = JDT 2458960.5
T 2020 May 4.95305 TT                                   Rudenko
q   1.6151085            (2000.0)            P               Q
z  +0.0002325      Peri.   92.99445     -0.50995854     -0.40634798
 +/-0.0000002      Node    64.37794     -0.16278106     -0.81987835
e   0.9996245      Incl.   57.23061     +0.84465651     -0.40333708
From 3496 observations 2017 Sept. 15-2020 Mar. 18, mean residual 0".5.

* Finding Charts

* Magnitudes Graph

        m1 = 5.0 + 5 log d + 9.5 log r

---------------------------------------------------------------------

The orbital elements are published on M.P.E.C. 2020-G65.
The charts are made with StellaNavigator Ver.10 (AstroArts).
The magnitudes graphs are made with Comet for Windows.

---------------------------------------------------------------------

Copyright(C) Seiichi Yoshida (comet@aerith.net). All rights reserved.